Tekamah, NE

7:55 AM CST on January 16, 2018 (GMT -0600)
Tekamah

Weather History for KTQE - September, 2012

Change the Weather History Date:

Wednesday, September 26, 2012

  Actual Average Record
Temperature  
Mean Temperature 63 °F -  
Max Temperature 80 °F 76 °F 95 °F (1998)
Min Temperature 46 °F 46 °F 28 °F (1984)
Degree Days  
Heating Degree Days 2    
Growing Degree Days 13 (Base 50)    
Moisture  
Dew Point 28 °F    
Average Humidity 37    
Maximum Humidity 68    
Minimum Humidity 9    
Precipitation  
Precipitation 0.00 in - - ()
Sea Level Pressure  
Sea Level Pressure 30.06 in    
Wind  
Wind Speed 10 mph (North)    
Max Wind Speed 14 mph    
Max Gust Speed 21 mph    
Visibility 7 miles    
Events      
Averages and records for this station are not official NWS values.
T = Trace of Precipitation, MM = Missing Value Source: NWS Daily Summary

Daily Weather History Graph

Daily Weather History Graph

Search for Another Location

Airport or City:

Trip Planner

Search our weather history database for the weather conditions in past years. The results will help you decide how hot, cold, wet, or windy it might be!

Date:

Astronomy

Sep. 26, 2012 Rise Set
Actual Time 7:16 AM CDT 7:14 PM CDT
Civil Twilight 6:49 AM CDT 7:41 PM CDT
Nautical Twilight 6:16 AM CDT 8:14 PM CDT
Astronomical Twilight 5:43 AM CDT 8:46 PM CDT
Moon 5:16 PM CDT (9/26) 3:41 AM CDT (9/26)
Length of Visible Light 12h 52m
Length of Day
11h 57m
Waxing Gibbous, 88% of the Moon is Illuminated
Sep 26
Waxing Gibbous
Sep 29
Full
Oct 8
Last Quarter
Oct 15
New
Oct 21
First Quarter

Hourly Weather History & Observations

Time (CDT) Temp. Windchill Dew Point Humidity Pressure Visibility Wind Dir Wind Speed Gust Speed Precip Events Conditions
12:54 AM 54.0 °F - 37.9 °F 55% 29.91 in 7.0 mi North 12.7 mph - N/A   Clear
1:54 AM 53.1 °F - 37.9 °F 57% 29.92 in 9.0 mi North 10.4 mph - N/A   Clear
2:54 AM 50.0 °F - 37.0 °F 61% 29.94 in 9.0 mi North 6.9 mph - N/A   Clear
3:54 AM 48.0 °F - 37.0 °F 66% 29.96 in 9.0 mi North 8.1 mph - N/A   Clear
4:54 AM 46.0 °F 42.5 °F 36.0 °F 68% 29.98 in 9.0 mi NNW 6.9 mph - N/A   Clear
5:54 AM 46.9 °F - 36.0 °F 66% 29.99 in 9.0 mi North 10.4 mph - N/A   Clear
6:54 AM 48.0 °F - 35.1 °F 61% 30.01 in 9.0 mi North 10.4 mph - N/A   Clear
7:54 AM 48.0 °F - 35.1 °F 61% 30.04 in 8.0 mi North 9.2 mph - N/A   Clear
8:54 AM 53.1 °F - 35.1 °F 50% 30.05 in 8.0 mi North 11.5 mph - N/A   Clear
9:54 AM 55.9 °F - 35.1 °F 45% 30.08 in 8.0 mi North 8.1 mph - N/A   Clear
10:54 AM 63.0 °F - 35.1 °F 35% 30.08 in 9.0 mi North 10.4 mph - N/A   Clear
11:54 AM 68.0 °F - 35.1 °F 30% 30.09 in 10.0 mi Variable 6.9 mph - N/A   Clear
12:54 PM 73.0 °F - 30.9 °F 21% 30.07 in 10.0 mi North 11.5 mph - N/A   Clear
1:54 PM 78.1 °F - 25.0 °F 14% 30.04 in 10.0 mi NNW 12.7 mph 20.7 mph N/A   Clear
2:54 PM 79.0 °F - 25.0 °F 14% 30.04 in 10.0 mi NNE 13.8 mph - N/A   Clear
3:54 PM 80.1 °F - 23.0 °F 12% 30.04 in 9.0 mi North 9.2 mph 17.3 mph N/A   Clear
4:54 PM 79.0 °F - 16.0 °F 9% 30.05 in 10.0 mi North 10.4 mph - N/A   Clear
5:54 PM 77.0 °F - 16.0 °F 10% 30.06 in 10.0 mi NNE 10.4 mph - N/A   Clear
6:54 PM 71.1 °F - 17.1 °F 13% 30.07 in 6.0 mi North 5.8 mph - N/A   Haze
7:52 PM 59.0 °F - 21.2 °F 23% 30.11 in 2.0 mi North 5.8 mph - N/A   Haze
7:54 PM 57.9 °F - 21.9 °F 25% 30.10 in 2.0 mi North 5.8 mph - N/A   Haze
8:10 PM 55.4 °F - 21.2 °F 26% 30.12 in 3.0 mi North 5.8 mph - N/A   Haze
8:19 PM 57.2 °F - 21.2 °F 25% 30.12 in 2.0 mi North 6.9 mph - N/A   Haze
8:31 PM 53.6 °F - 21.2 °F 28% 30.12 in 3.0 mi NNW 5.8 mph - N/A   Haze
8:54 PM 54.0 °F - 21.9 °F 29% 30.13 in 3.0 mi NNW 8.1 mph - N/A   Haze
9:54 PM 51.1 °F - 25.0 °F 36% 30.14 in 4.0 mi NNW 8.1 mph - N/A   Haze
10:54 PM 46.9 °F - 26.1 °F 44% 30.15 in 2.0 mi NNW 8.1 mph - N/A   Haze
11:54 PM 46.9 °F - 27.0 °F 46% 30.14 in 2.5 mi NNW 8.1 mph - N/A   Haze